Weather in Kê Gà

Vietnam     10°42′36″N   107°59′43″E
temp.,
°C
wind,
m/s
gust,
m/s
humid.,
%
clouds,
%
prec.,
mm/h
press.,
hPa
HPBL,
m
14 may, fri
fri1401:00+28ne458159 0.9 1007414
04:00+27ne458569 0.3 1006343
07:00+28ne457980 1.0 1008467
10:00+31e5567100 0.4 1008851
13:00+31ese666370 0.5 1006830
16:00+31ese556629 0.0 1004771
19:00+29e4574100 0.0 1006574
22:00+29ene457792 1.0 1008400
15 may, sat
sat1501:00+28ene4581100 2.4 1007345
04:00+28ne4581100 0.3 1007410
07:00+29ne567596 0.3 1008646
10:00+31e6666100 0.0 1009888
13:00+31ese6663100 0.0 1006853
16:00+31ese5667100 0.0 1005863
19:00+29e467617 0.0 1006591
22:00+29ene56805 0.3 1008523
16 may, sun
sun1601:00+28ene45835 0.7 1007457
04:00+27ne45857 0.4 1006411
07:00+29ne45787 0.4 1008544
10:00+31e556752 0.0 1008873
13:00+31se666535 0.1 1006782
16:00+31se446818 0.0 1005908
19:00+29ese447511 0.1 1007527
22:00+29e337712 0.1 1008379
17 may, mon
mon1701:00+28ene22806 1.4 1007316
04:00+28ene228255 0.0 1006338
07:00+28ne22795 0.3 1007427
10:00+30ese337045 3.1 1008638
13:00+31sse4366100 4.1 1007770
16:00+30ese346698 0.2 1005774
19:00+29ese347299 0.3 1007491
22:00+28ene3481100 3.4 1008159
18 may, tue
tue1801:00+28ne4581100 4.5 1007368
04:00+27ne5681100 0.0 1007478
07:00+29ene5675100 0.3 1008683
10:00+31e556675 0.1 10091051
13:00+31se5465100 0.6 1007915
16:00+30sse4466100 0.7 1006850
19:00+28s2276100 3.4 1007216
22:00+28ne1177100 0.1 1009269